Regional Weather Roundup
Issued by NWS

Home | Current Version | Previous Version | Text Only | Print | Product List | Glossary On
Versions: 1 2 3 4 5 6 7 8 9 10 11 12 13 14 15 16 17 18 19 20 21 22 23 24 25 26 27 28 29 30 31 32 33 34 35 36 37 38 39 40 41 42 43 44 45 46 47 48 49 50
000
ASCA44 KEWX 240220
RWRMX

LATIN AMERICA AND CARIBBEAN REGIONAL WEATHER ROUNDUP
NATIONAL WEATHER SERVICE AUSTIN/SAN ANTONIO TX
900 PM CDT TUE MAY 23 2017

NOTE: "FAIR" INDICATED FEW OR NO CLOUDS BELOW 12,000 FEET WITH NO
SIGNIFICANT WEATHER AND/OR OBSTRUCTIONS TO VISIBILITY.

BAJA CALIFORNIA

CITY           SKY/WX    TMP DP  RH WIND       PRES   REMARKS
LORETO         CLEAR     90  70  51 CALM      29.73F HX  95
LA PAZ         CLEAR     86  43  22 S14       29.80
MEXICALI       CLEAR    106  23   5 W6        29.70  HX  98
S.J. DEL CABO  CLEAR     82  43  24 S5        29.80S
TIJUANA        CLEAR     68  54  60 W3        29.92F

NORTHWESTERN MEXICO

CITY           SKY/WX    TMP DP  RH WIND       PRES   REMARKS
CULIACAN       CLEAR     68  64  88 SW6       29.78
DURANGO        MOCLDY    81  34  18 S20       30.04
GUAYMAS        CLEAR     91  61  35 SW9       29.67  HX  91
HERMOSILLO     CLEAR    102  37  10 SW13      29.75  HX  96
CD. JUAREZ     CLEAR     79  46  31 E12G23    29.86
LOS MOCHIS     CLEAR     82  50  32 SW8       29.78S
OBREGON        PTCLDY    88  43  20 SW8       29.72

NORTHEASTERN MEXICO

CITY           SKY/WX    TMP DP  RH WIND       PRES   REMARKS
CHIHUAHUA      CLEAR     84  30  14 NE8       29.95
MATAMOROS        N/A    N/A N/A N/A MISG        N/A
MONCLOVA         N/A    N/A N/A N/A MISG        N/A
MONTERREY      CLOUDY    82  68  61 E6        29.84R
NUEVO LAREDO     N/A    N/A N/A N/A MISG        N/A
PIEDRAS NEGRAS   N/A    N/A N/A N/A MISG        N/A
REYNOSA        PTCLDY    79  70  73 E5        29.79
SALTILLO       CLEAR     72  54  53 N23       30.03R
TORREON        PTCLDY    93  45  18 N5        29.86R
CD. VICTORIA   PTCLDY    84  70  61 NE14      29.78R

WESTERN MEXICO

CITY           SKY/WX    TMP DP  RH WIND       PRES   REMARKS
AGUASCALIENTES PTCLDY    82  10   6 S5        30.06
COLIMA         PTCLDY    79  68  69 W9        29.95R
DEL BAJIO      MOCLDY    82  25  12 W7        30.10R
GUADALAJARA    PTCLDY    84  39  20 W9        30.02
MANZANILLO     PTCLDY    73  64  73 SW9       29.76R
MAZATLAN       MOCLDY    81  70  69 W6        29.80R
P. VALLARTA    MOCLDY   N/A N/A N/A S7        29.81R
URUAPAN          N/A    N/A N/A N/A MISG        N/A
ZACATECAS      MOCLDY    79  21  11 SW8       30.13R

CENTRAL MEXICO

CITY           SKY/WX    TMP DP  RH WIND       PRES   REMARKS
CUERNAVACA       N/A    N/A N/A N/A MISG        N/A
MEXICO CITY    MOCLDY    77  54  44 SE7       30.17R
MORELIA        PTCLDY    77  57  50 S10       30.08
POZA RICA      CLEAR     84  75  74 E7        29.73R HX  92
PUEBLA         MOCLDY    72  52  49 SE13      30.22R
QUERETARO      MOCLDY    81  32  17 SW6       30.10R
S. LUIS POTOSI PTCLDY    81  46  30 E6        30.00R
TAMPICO        PTCLDY    82  79  89 S14       29.74R HX  93
TOLUCA         MOCLDY    66  55  68 SE3       30.28R

SOUTHERN MEXICO

CITY           SKY/WX    TMP DP  RH WIND       PRES   REMARKS
ACAPULCO       PTCLDY    84  77  79 CALM      29.80R HX  94
B. DE HUATULCO   N/A    N/A N/A N/A MISG        N/A
OAXACA         CLOUDY    73  63  68 SE6       30.10R
P. ESCONDIDO     N/A    N/A N/A N/A MISG        N/A
VERACRUZ       CLOUDY    84  79  84 NE5       29.71R HX  96
ZIHUATANEJO    MOCLDY    86  75  70 S6        29.81R HX  95

YUCATAN PENINSULA

CITY           SKY/WX    TMP DP  RH WIND       PRES   REMARKS
CAMPECHE       MOCLDY    90  79  70 N12G23    29.69R HX 105
CANCUN         PTCLDY    84  77  79 SE13      29.86R HX  94
CHETUMAL       PTCLDY    84  75  74 E12       29.81  HX  92
CD. DEL CARMEN PTCLDY    86  79  79 N10       29.71  HX  99
COZUMEL        MOCLDY    82  77  83 SE7       29.84S HX  91
MERIDA         PTCLDY    88  68  51 NE5       29.76R HX  91
MINATITLAN       N/A    N/A N/A N/A MISG        N/A
TAPACHULA      MOCLDY    81  77  89 E3        29.82R THUNDER
TUX. GUTIERREZ CLOUDY    82  68  61 CALM      29.84R
VILLAHERMOSA   PTCLDY    86  75  70 CALM      29.73R HX  95

CENTRAL AMERICA

CITY           SKY/WX    TMP DP  RH WIND       PRES   REMARKS
MANAGUA        PTCLDY    81  73  78 SE7       29.83R

CARIBBEAN

CITY           SKY/WX    TMP DP  RH WIND       PRES   REMARKS
ARUBA          PTCLDY    82  77  83 E23       29.89S HX  91
CURACAO        PTCLDY    82  75  78 E14       29.94S
KINGSTON       PTCLDY    84  73  70 SE14      29.94R HX  91
NASSAU         PTCLDY    82  75  78 SE6       29.98R
SAN JUAN       PTCLDY    81  75  83 E9        30.06S
SANTO DOMINGO  MOCLDY    81  75  83 E5        30.00R
ST. CROIX      PTCLDY    81  75  83 E8        30.06S
ST. MAARTEN    PTCLDY    81  77  89 E12       30.06S
ST. THOMAS     CLOUDY    82  75  78 E7        30.07

$$





USA.gov is the U.S. government's official web portal to all federal, state and local government web resources and services.